This is the latest recevied weather packets stored in our database for station/object HG5CJW-10. If no packets are shown the sender has not sent any weather packets the latest 10 day(s).
| Time | Temp. | Humidity | Pressure | Rain* | Wind** | Luminosity | Snow |
|---|---|---|---|---|---|---|---|
| 1788601838 | 22.22° C | 65% | 1036.6 hPa | - | - | - | - |
| 1788600938 | 22.22° C | 64% | 1037.1 hPa | - | - | - | - |
| 1788600038 | 22.22° C | 63% | 1036.8 hPa | - | - | - | - |
| 1788599138 | 22.22° C | 63% | 1037.1 hPa | - | - | - | - |
| 1788598238 | 22.22° C | 63% | 1036.9 hPa | - | - | - | - |
| 1788597338 | 22.22° C | 65% | 1036.7 hPa | - | - | - | - |
| 1788596438 | 21.67° C | 66% | 1036.1 hPa | - | - | - | - |
| 1788595538 | 21.67° C | 68% | 1035.5 hPa | - | - | - | - |
| 1788594638 | 21.67° C | 70% | 1035.1 hPa | - | - | - | - |
| 1788593738 | 21.67° C | 69% | 1034.5 hPa | - | - | - | - |
| 1788592832 | 21.67° C | 67% | 1034.5 hPa | - | - | - | - |
| 1788591932 | 21.67° C | 66% | 1033.7 hPa | - | - | - | - |
| 1788591055 | 21.67° C | 62% | 1033.7 hPa | - | - | - | - |
| 1788590132 | 21.67° C | 59% | 1033.6 hPa | - | - | - | - |
| 1788589246 | 21.11° C | 59% | 1033.3 hPa | - | - | - | - |
| 1788588332 | 21.11° C | 59% | 1033.1 hPa | - | - | - | - |
| 1788587454 | 21.11° C | 60% | 1033 hPa | - | - | - | - |
| 1788586532 | 21.11° C | 59% | 1033 hPa | - | - | - | - |
| 1788585632 | 21.11° C | 59% | 1033 hPa | - | - | - | - |
| 1788584731 | 21.11° C | 59% | 1033 hPa | - | - | - | - |
| 1788583831 | 21.11° C | 59% | 1033 hPa | - | - | - | - |
| 1788582931 | 21.11° C | 58% | 1033.1 hPa | - | - | - | - |
| 1788582031 | 21.67° C | 58% | 1032.8 hPa | - | - | - | - |
| 1788581131 | 21.67° C | 58% | 1033.1 hPa | - | - | - | - |
| 1788580231 | 21.11° C | 58% | 1032.3 hPa | - | - | - | - |
* Rain since midnight (hover to see other rain measurements)
** Current wind speed in m/s (hover to see current wind gust speed)